Location: Ashtead
(51.3000°N, 0.3000°W)
Time: 04:00:35
(UTC+00:00)

BlueWalker 3 - Pass Details

Date: 26 September 2023
Orbit: 489 x 504 km, 53.2° (Epoch: 29 November)

Event Time Altitude Azimuth Distance (km) Brightness Sun altitude
Exits shadow 04:52:40 12° 287° (WNW) 1,605 4.0 -10.2°
Maximum altitude 04:56:17 80° 14° (NNE) 515 2.0 -9.7°
Drops below altitude 10° 05:00:11 10° 103° (ESE) 1,717 5.9 -9.1°
Sets 05:02:22 0° 104° (ESE) 2,604 7.0 -8.7°
